Flag for Canada Weather past 2 weeks in Richmond Hill, Ontario, Canada

Now
27 °F

Partly sunny.


Feels Like: 20 °F
Forecast: 12 / 32 °F
Wind: 6 mph from West

Location: Toronto Buttonville

Current Time: Mar 4, 2015 at 8:05:51 AM

Latest Report: Mar 4, 2015 at 7:00 AM


Visibility: 15 mi

Pressure: 29.80 "Hg

Humidity: 74%

Dew point: 19 °F

Location of Richmond HillLocation

Historic Weather in Richmond Hill — Graph

°F

Richmond Hill temperature yesterday

Maximum temperature yesterday: 30 °F (at 11:00 PM)
Minimum temperature yesterday: 0 °F (at 4:00 AM)
Average temperature yesterday: 17 °F

Past Weeks' High & Low Weather Summary

 TemperatureHumidityPressure
High32 °F (Mar 4, 12:00 AM)100% (Mar 3, 5:00 PM)30.79 "Hg (Mar 3, 5:00 PM)
Low-11 °F (Feb 27, 6:00 AM)24% (Feb 17, 4:00 PM)29.58 "Hg (Mar 3, 8:00 PM)
Average9 °F65%30.18 "Hg
* Reported Feb 17 6:00 AM — Mar 4 6:00 AM, Richmond Hill, Weather by CustomWeather, © 2015

Note: Actual official high and low records may vary slightly from our data, if they occured in-between our weather recording intervals... More about our weather records

Advertising

Richmond Hill weather history for previous 24 hours

 ConditionsComfort  
Time TempWeatherWind HumidityBarometerVisibility
6:00 AM
Wed, Mar 4
28 °FPassing clouds.9 mph69%29.80 "Hg15 mi
5:00 AM30 °FOvercast.14 mph69%29.78 "Hg15 mi
4:00 AM30 °FOvercast.12 mph80%29.73 "Hg12 mi
3:00 AM30 °FOvercast.6 mph80%29.72 "Hg12 mi
2:00 AM30 °FOvercast.13 mph86%29.72 "Hg12 mi
1:46 AMN/AOvercast.9 mphN/AN/A12 mi
1:00 AM32 °FOvercast.8 mph80%29.68 "Hg12 mi
12:00 AM32 °FOvercast.6 mph87%29.65 "Hg12 mi
11:00 PM
Tue, Mar 3
30 °FLight snow. Overcast.13 mph93%29.62 "Hg7 mi
10:49 PMN/AOvercast.8 mphN/AN/A7 mi
10:00 PM28 °FLight snow. Ice fog.6 mph100%29.59 "Hg3 mi
9:47 PMN/ALight snow.7 mphN/AN/A3 mi
9:00 PM28 °FIce fog.5 mph100%29.58 "Hg2 mi
8:49 PMN/AFog.6 mphN/AN/A2 mi
8:00 PM27 °FLight freezing rain. Ice fog.3 mph100%29.58 "Hg1 mi
7:00 PM27 °FLight freezing rain. Ice fog.6 mph100%29.59 "Hg1 mi
6:00 PM25 °FLight freezing rain. Low clouds.7 mph100%29.62 "Hg1 mi
5:00 PM23 °FLight snow. Low clouds.10 mph100%29.68 "Hg1 mi
4:00 PM23 °FLight snow. Low clouds.12 mph93%29.75 "Hg2 mi
3:00 PM21 °FLight snow. Low clouds.10 mph93%29.83 "Hg1 mi
2:00 PM21 °FLight snow. Low clouds.10 mph86%29.92 "Hg1 mi
1:00 PM21 °FLight snow. Low clouds.9 mph86%30.00 "Hg1 mi
12:00 PM21 °FLight snow. Overcast.7 mph74%30.10 "Hg3 mi
11:00 AM23 °FOvercast.10 mph63%30.16 "Hg12 mi
10:00 AM23 °FOvercast.7 mph68%30.21 "Hg12 mi
9:00 AM16 °FOvercast.No wind79%30.27 "Hg12 mi
8:00 AM12 °FOvercast.No wind79%30.27 "Hg10 mi
Weather by CustomWeather, © 2015

See weather overviewHow to use our weather pages